RH
66 66 66 63 64 61 61 60 57 53 51 55 61 73 78 82 77 74 64 59 48 45 44 39 35 29 38 25 19 24 21 20 19 19 14 14 14 14 15 12 11 12 12 11 10 10 11
70 75 70 66 68 62 62 60 60 56 52 55 59 73 75 85 81 76 68 58 47 42 39 37 35 34 35 30 19 21 22 24 22 16 15 14 14 12 14 14 14 12 12 13 12 12 12
74 76 74 72 72 68 66 62 62 58 56 55 67 76 79 81 82 78 70 60 46 40 38 36 33 43 35 29 21 20 20 18 19 20 17 16 14 15 14 16 14 14 18 14 12 11 12
78 75 73 72 73 72 69 63 58 55 54 53 66 80 90 86 84 79 69 59 44 39 38 33 36 53 36 26 23 21 17 16 17 19 19 18 18 18 19 16 16 17 16 18 12 10 11
76 77 72 69 62 62 61 55 52 55 52 56 68 79 88 84 86 80 71 54 41 38 35 34 46 36 31 24 21 21 20 16 17 16 16 18 18 20 18 20 21 17 19 17 15 11 11
76 75 74 74 75 75 69 60 57 56 55 60 71 78 84 79 86 82 68 49 40 40 34 29 34 34 29 24 23 23 22 22 20 16 18 20 20 23 21 22 26 20 18 16 16 12 12
73 75 78 77 72 76 77 74 74 69 65 67 76 76 83 80 86 83 56 42 34 30 33 33 30 32 28 21 19 17 17 16 19 22 25 21 24 26 22 19 18 18 20 19 16 13 15
73 77 78 74 74 76 75 76 76 79 80 80 82 88 89 86 88 79 56 45 47 49 57 34 30 27 25 25 23 16 18 16 20 24 19 23 27 20 18 18 19 19 20 20 16 14 14
72 76 79 75 74 75 74 75 79 82 81 83 91 99 99 99 90 70 56 54 54 48 51 36 28 24 20 23 20 16 17 16 18 18 16 20 17 15 16 17 18 17 19 21 20 16 14
75 76 78 80 76 78 74 72 75 78 81 86 89 95 97 97 82 63 54 56 55 55 60 38 30 22 21 21 23 14 16 17 18 20 18 19 15 16 18 18 16 21 14 16 17 19 23
73 73 78 78 77 80 76 74 74 74 77 85 91 97 94 97 83 69 60 56 57 57 81 32 24 19 16 22 18 16 14 17 23 21 20 23 19 18 20 18 16 19 16 18 20 22 22
71 76 79 78 77 77 76 79 82 82 80 83 94 97 97 97 88 72 60 60 52 70 85 35 21 23 23 20 24 23 23 17 17 21 20 21 16 17 19 17 17 17 21 21 21 24 34
72 78 80 78 76 75 76 76 79 86 89 89 95 100 99 91 72 66 62 54 84 99 34 35 32 27 29 33 32 29 29 28 28 37 32 25 22 16 21 25 21 22 34 48 56 46 51
74 79 82 83 82 82 79 80 81 84 91 94 97 100 99 94 80 62 51 76 100 72 49 32 36 36 42 35 34 32 32 31 30 37 38 40 42 27 25 28 32 33 46 66 92 49 38
76 82 85 88 90 92 93 94 95 90 94 99 100 100 100 97 74 66 77 100 84 67 46 45 40 48 46 38 38 36 37 38 43 45 53 57 46 31 32 30 31 52 53 41 89 60 68
82 82 86 89 92 88 90 94 96 100 99 100 99 100 93 94 76 68 96 94 81 58 46 48 70 62 57 45 54 52 45 58 71 50 44 68 65 34 32 30 26 34 30 53 92 88 71
89 87 88 90 88 87 92 100 100 100 100 100 99 99 100 91 85 98 99 93 74 52 52 78 90 86 64 58 55 51 50 62 56 54 46 55 66 46 38 40 37 32 44 74 64 54 82
97 94 92 92 91 91 94 97 100 100 100 100 98 100 100 95 98 98 99 85 74 72 80 85 81 73 85 79 72 59 61 60 44 47 52 51 46 54 40 26 23 25 29 48 69 68 63
100 100 99 100 96 99 95 100 100 100 99 98 99 99 98 99 100 100 98 97 88 94 93 94 86 77 78 79 96 72 73 49 44 42 45 36 42 52 34 24 25 26 34 23 22 26 45
96 97 100 100 100 100 100 100 100 100 99 89 98 100 99 98 98 98 99 100 100 90 94 89 95 95 93 88 68 76 82 57 42 38 48 42 38 43 51 34 27 30 22 18 20 42 42
100 99 100 100 99 100 100 100 100 100 100 84 98 99 87 99 100 100 96 98 99 100 95 95 98 78 77 96 74 69 58 87 59 38 41 39 50 41 34 28 24 24 23 23 26 27 38
100 100 100 100 100 99 100 100 100 100 100 92 100 98 99 100 96 100 100 100 100 99 97 98 93 65 72 83 58 60 45 46 44 32 36 33 50 40 59 34 30 32 27 26 25 27 27
100 100 100 99 99 99 100 98 98 98 94 98 98 99 96 100 100 100 99 97 96 93 95 67 60 70 67 54 40 40 37 36 35 38 34 30 39 48 54 31 30 41 40 26 34 31 36
100 99 98 99 100 100 100 100 99 98 94 92 99 96 99 100 98 98 95 96 96 91 77 49 49 54 42 36 34 32 30 27 25 25 25 34 36 41 54 37 63 29 16 26 39 37 30
100 100 100 99 100 99 98 97 92 90 87 83 88 80 89 98 70 76 69 72 59 49 51 45 39 33 36 35 41 36 29 24 23 22 24 23 32 52 58 42 34 22 22 54 45 42 72
99 100 100 99 94 95 95 92 90 86 76 72 67 59 37 58 46 35 42 40 46 44 42 40 36 38 36 36 52 52 31 20 20 16 17 20 36 56 52 72 62 26 17 31 27 38 87
99 96 92 90 92 90 83 73 64 59 57 56 71 78 32 54 33 32 34 38 30 31 38 35 46 48 36 52 61 49 38 26 37 32 26 24 34 73 74 82 50 18 40 30 45 71 85
94 97 96 93 84 80 73 66 64 59 57 53 78 70 48 35 39 42 36 31 32 31 41 34 40 41 48 61 51 42 40 29 40 36 27 29 36 44 43 59 56 37 38 71 76 77 78
84 84 83 83 79 75 64 51 47 44 44 50 52 56 44 28 39 41 36 33 27 23 26 38 32 38 40 50 48 47 52 42 38 49 22 35 31 43 44 55 45 32 75 49 59 100 98
Wind_Speed
21 20 19 16 16 14 14 13 12 13 15 15 15 16 18 20 21 24 27 31 34 34 35 35 31 24 15 11 12 4 6 7 8 10 14 12 13 14 19 15 14 21 20 22 22 20 20
22 22 20 18 18 16 16 14 14 14 15 16 15 17 17 19 22 25 28 31 34 34 31 32 27 19 13 17 2 0 3 7 13 13 14 12 12 11 15 18 18 17 20 19 20 21 22
23 23 22 20 20 18 17 16 16 15 16 16 16 17 18 19 22 26 29 32 32 32 30 28 20 15 12 15 2 5 7 10 9 11 13 11 12 11 10 15 9 14 19 20 21 21 23
25 24 22 21 20 20 19 17 17 17 16 16 15 17 18 20 22 26 28 33 34 27 25 19 21 9 7 2 5 4 8 9 8 10 12 14 9 13 18 16 19 20 22 21 20 20 9
27 26 23 22 20 21 21 19 18 18 16 15 15 16 16 19 22 26 30 32 25 21 16 21 10 6 6 3 3 9 6 7 8 9 8 6 10 15 17 17 17 18 21 23 22 19 16
28 26 25 22 21 20 20 18 18 18 17 15 15 16 16 17 21 26 30 29 20 22 9 17 11 10 5 7 20 18 17 18 10 7 8 10 9 15 14 13 18 21 23 23 23 15 18
30 28 27 24 21 21 20 18 18 18 17 16 16 16 14 15 20 24 24 25 15 6 16 12 21 15 18 17 5 2 7 7 16 12 15 13 13 17 19 19 22 23 25 27 24 22 23
31 30 28 25 23 22 21 19 18 19 18 16 16 16 13 15 16 19 13 8 7 9 15 20 10 10 11 4 4 4 3 3 5 13 15 16 19 19 20 20 22 22 25 26 25 22 21
31 31 29 26 24 23 21 20 19 19 19 17 16 13 13 13 16 7 7 7 9 10 9 7 5 5 2 5 4 2 4 3 8 11 12 15 17 7 11 16 17 19 21 21 24 21 26
33 31 30 30 26 24 22 20 20 21 20 18 17 14 12 11 8 5 2 6 8 4 6 7 7 5 5 4 5 2 2 4 7 10 11 12 10 13 13 17 16 21 19 19 19 18 21
35 33 33 31 28 26 24 22 22 21 20 19 16 15 12 7 4 2 2 5 4 3 6 5 6 4 3 5 6 7 2 8 13 14 9 15 15 13 17 18 17 19 18 14 18 18 21
36 35 35 33 29 29 26 24 23 23 21 20 17 16 13 7 6 7 4 2 4 5 8 5 5 4 8 8 7 14 14 11 12 17 19 24 21 17 15 15 11 13 16 20 22 19 19
37 37 36 33 32 29 27 27 25 24 23 21 19 18 16 9 3 4 2 2 1 5 1 5 3 2 6 15 18 15 14 13 10 9 13 16 18 13 3 11 16 7 12 7 7 12 18
39 40 38 36 34 31 29 27 27 27 25 22 21 20 20 13 8 9 4 1 6 7 13 1 5 11 17 16 6 6 9 11 6 7 13 13 12 5 7 5 4 4 6 7 7 12 17
41 41 39 37 35 32 30 29 29 30 27 23 21 23 9 18 16 12 3 5 6 7 5 9 12 17 18 2 5 5 10 10 8 7 6 6 3 4 4 3 2 3 8 5 6 17 14
42 42 40 37 35 33 32 33 33 32 29 27 21 13 7 14 18 11 3 7 6 7 4 2 6 5 11 6 4 2 6 1 3 3 6 2 9 4 3 4 12 11 3 6 4 5 9
44 43 41 38 38 37 37 36 35 36 33 31 13 4 10 18 17 2 4 7 6 4 2 2 4 7 7 5 8 11 5 1 3 2 3 2 3 6 12 9 12 10 6 4 6 7 6
43 43 43 43 41 40 36 36 35 37 30 32 7 3 15 23 3 3 4 5 3 5 2 5 5 11 4 3 4 6 4 1 4 0 1 3 6 13 20 21 21 18 16 4 5 6 9
37 43 47 45 42 37 35 35 26 27 34 16 3 3 1 6 5 4 2 3 5 6 7 7 8 5 2 6 5 9 4 7 4 1 1 5 3 10 13 8 3 8 9 10 15 16 22
34 35 36 49 40 33 29 26 23 22 33 15 4 4 0 2 1 3 6 5 6 10 4 4 3 4 6 8 7 3 4 7 5 3 5 0 9 12 13 17 15 20 22 19 19 12 18
34 32 35 26 22 23 24 22 21 32 36 14 1 2 3 5 5 4 8 7 7 7 4 6 4 12 10 4 5 7 9 6 10 9 7 7 14 15 19 19 19 21 23 23 24 24 23
27 24 22 18 17 17 15 28 41 40 31 6 4 4 1 3 7 11 9 7 9 4 8 6 6 9 8 6 8 6 9 10 10 9 12 14 16 13 16 17 20 23 21 25 25 24 23
15 19 16 15 21 32 38 34 30 24 15 6 2 4 3 6 5 5 5 6 9 10 2 5 8 6 10 13 9 8 9 10 12 12 14 14 12 11 18 17 19 17 19 21 16 16 16
31 31 35 36 34 35 29 29 23 17 7 11 5 4 3 3 3 4 6 4 9 9 3 7 10 11 3 3 4 10 14 16 17 18 17 18 17 12 14 17 20 20 13 5 13 14 16
38 37 36 36 30 27 23 18 14 12 11 13 12 4 2 3 6 7 8 10 11 8 9 8 6 2 4 1 4 8 11 16 19 20 20 19 16 14 14 16 20 22 9 5 13 19 10
37 35 34 30 28 25 23 18 14 13 16 11 7 1 1 2 6 6 10 9 9 8 9 6 5 4 4 3 4 6 5 10 5 5 12 15 15 12 15 16 18 16 8 4 15 16 15
33 31 30 29 26 24 22 19 17 13 11 7 5 5 1 1 3 2 7 7 8 6 5 8 8 6 5 4 8 11 12 12 10 15 14 11 11 14 13 13 12 19 11 12 8 9 24
30 29 28 26 25 24 22 17 15 14 12 6 6 6 3 2 4 4 3 1 2 4 5 5 6 4 5 6 7 9 9 11 5 14 13 13 10 12 13 16 22 12 13 6 8 16 21
30 28 27 26 25 24 21 18 14 11 10 8 6 5 4 2 5 1 0 2 4 5 3 7 5 3 5 4 4 4 7 6 12 11 13 12 10 10 10 7 20 13 5 10 14 15 15
Wind_Direction
233 236 237 242 249 256 267 277 287 295 302 308 317 321 327 333 336 338 339 338 338 336 331 331 333 337 347 291 297 129 193 228 235 241 238 234 247 251 259 263 263 256 261 262 274 277 278
235 238 239 242 249 253 262 271 280 288 295 302 312 317 320 329 332 334 336 337 334 331 325 327 325 339 305 288 55 174 234 244 246 230 241 244 253 280 282 278 272 278 293 284 281 280 277
235 237 240 243 248 253 258 268 277 284 290 299 309 315 319 327 329 331 333 334 331 325 320 321 315 334 284 267 322 302 262 257 261 253 262 246 267 261 278 285 292 278 276 277 270 269 267
234 236 238 242 247 256 259 266 273 277 284 293 300 310 318 327 327 328 331 332 327 318 318 314 320 312 273 24 304 337 307 248 246 254 263 281 274 270 270 282 280 267 265 272 270 261 240
235 237 239 241 247 254 261 265 269 273 278 285 293 301 311 320 329 330 330 329 323 315 316 313 310 288 286 106 40 328 321 314 301 258 242 271 256 254 264 256 266 250 263 266 276 284 296
234 237 238 240 246 253 258 263 267 271 276 281 286 293 310 321 327 329 330 330 312 299 285 280 265 271 205 339 325 299 274 260 268 268 239 227 250 250 246 252 263 283 288 294 296 296 287
232 234 238 240 243 248 253 258 266 269 273 277 281 291 308 316 323 334 338 334 359 293 333 279 288 275 290 329 311 286 322 273 231 238 257 256 254 251 264 270 281 287 284 284 283 291 287
232 236 237 239 242 246 250 255 260 266 270 274 281 293 301 311 321 333 333 15 16 317 299 287 279 253 268 297 268 157 251 259 191 244 244 242 250 262 273 279 282 280 283 282 285 281 271
231 235 239 240 240 243 247 251 258 264 267 270 274 281 291 309 323 318 341 12 334 325 278 285 234 249 198 235 307 360 255 337 272 280 264 259 274 279 280 266 279 273 272 276 285 295 288
231 235 238 241 241 242 244 248 253 258 263 265 267 270 278 303 301 346 348 341 330 321 281 175 195 164 194 237 222 340 278 302 258 281 310 282 306 293 288 274 269 273 281 292 290 290 281
232 234 237 240 241 242 244 246 249 254 257 261 261 259 265 264 296 278 327 327 323 261 292 98 142 90 192 254 330 159 196 266 270 285 258 254 285 252 265 274 288 284 299 292 288 283 291
233 236 237 238 240 241 242 245 249 253 254 255 252 246 247 249 245 244 290 321 275 244 245 189 154 198 223 201 280 301 294 237 258 276 270 275 275 271 274 281 296 315 296 273 266 265 261
233 236 237 237 237 239 241 243 244 247 252 251 246 235 231 207 251 171 199 210 110 227 32 175 232 261 278 293 294 302 298 283 277 297 269 292 282 240 8 277 260 243 297 283 267 239 247
233 236 237 238 237 237 237 240 245 247 246 246 242 227 217 215 202 178 127 123 211 230 265 8 208 274 274 297 287 290 269 274 151 285 280 282 286 277 58 3 344 299 254 266 286 287 300
235 237 238 239 240 239 241 247 250 247 241 239 229 183 185 210 184 178 139 210 219 216 315 294 286 275 273 245 265 285 281 284 32 5 303 317 249 92 105 339 308 136 238 298 281 266 266
236 237 238 239 240 241 251 253 251 248 238 225 182 160 168 187 182 134 191 235 231 241 312 267 239 263 274 242 226 215 269 357 95 326 307 35 283 263 142 302 249 230 341 253 219 268 258
237 236 237 236 240 251 259 257 256 250 238 208 148 147 155 161 139 118 213 214 231 211 248 167 256 260 258 265 262 271 270 74 186 141 7 296 251 251 306 252 277 248 236 227 295 267 278
239 238 236 239 242 256 256 258 257 255 226 174 136 176 154 148 140 180 208 208 167 189 167 223 262 264 249 211 245 254 250 54 104 101 253 67 303 281 286 281 270 271 281 318 274 289 281
247 243 241 240 246 252 256 257 255 244 212 154 104 87 15 183 200 196 201 207 201 191 196 196 219 254 258 212 226 234 176 127 137 150 164 23 269 307 303 158 199 185 194 299 296 286 269
247 256 260 247 248 250 255 248 245 224 188 145 128 137 256 237 40 219 165 190 195 210 202 189 144 155 199 211 225 213 171 180 181 220 115 269 251 244 259 287 309 291 291 292 282 271 276
254 257 264 248 244 246 244 242 224 189 178 141 57 165 166 183 218 189 178 186 171 177 200 172 192 215 202 181 215 228 221 184 225 231 228 239 259 260 270 282 286 282 282 281 273 274 269
252 250 227 234 236 241 225 166 159 169 167 87 136 147 62 147 149 171 184 197 186 156 167 181 233 192 209 218 221 255 249 227 243 251 230 231 260 271 273 278 275 275 279 279 282 273 269
227 202 184 170 157 145 145 147 153 160 163 96 81 39 100 158 163 167 197 178 185 150 228 206 208 220 226 240 263 270 269 261 253 248 255 252 253 253 267 283 288 275 269 275 299 311 310
152 145 136 135 135 140 146 148 152 162 152 114 132 119 125 152 181 177 160 138 151 179 182 216 219 212 86 67 289 265 257 255 252 248 245 248 245 248 256 272 267 269 278 288 295 294 308
130 131 134 136 139 140 136 134 136 121 104 124 129 128 168 141 181 184 188 194 200 198 218 192 198 45 107 272 281 273 253 242 241 240 239 235 245 256 256 259 272 288 319 0 317 304 40
129 128 133 131 128 133 131 127 119 110 107 117 120 301 252 156 211 184 188 186 187 196 179 211 71 147 196 231 224 247 263 290 274 245 216 222 214 235 251 272 271 285 314 323 304 296 8
122 122 121 120 121 124 120 115 120 131 135 131 74 28 297 292 69 234 198 208 217 214 225 176 165 202 217 222 246 258 267 269 257 265 262 256 233 241 252 259 281 301 11 319 284 318 331
122 120 118 117 120 118 119 125 126 126 130 135 86 40 350 218 92 326 12 240 126 229 201 134 172 224 183 235 258 275 260 265 289 259 281 282 281 273 273 273 270 354 338 358 331 307 303
120 123 125 123 117 114 114 114 115 114 120 114 100 60 42 9 60 140 297 310 340 348 270 158 260 139 206 232 246 277 278 280 282 278 278 272 267 283 283 276 296 316 0 305 320 297 303